Погода в Малодорах

Россия / Архангельская область     60°57′46″N   43°20′12″E
темп.,
°C
ветер,
м/с
пор.,
м/с
влажн.,
%
обл.,
%
осадки,
мм/ч
давл.,
гПа
погр.,
м
25 июля, вс
вс2500:00+11зюз2463100 0.0 1014105
03:00+10зюз2666100 0.0 1014155
06:00+11юз3863100 0.0 1015304
09:00+17зюз484665 0.0 10151572
12:00+17зюз3646100 0.0 10151548
15:00+18зюз3748100 0.0 10161422
18:00+19зюз254790 0.0 1016801
21:00+14юз236626 0.0 101658
26 июля, пн
пн2600:00+11зюз210795 0.0 1017207
03:00+11зюз288657 0.0 1017193
06:00+13юз267870 0.1 1017187
09:00+18з35605 0.1 1016690
12:00+23з593998 0.0 10162492
15:00+14ссз31091100 0.4 1016414
18:00+16зсз269028 1.9 1016632
21:00+12ссз229622 2.7 101734
27 июля, вт
вт2700:00+10ссз28965 0.0 1018179
03:00+6сз28960 0.0 1020196
06:00+7сз27920 0.0 1021237
09:00+13сз34564 0.0 1020744
12:00+18сз354016 0.0 10191789
15:00+20сз35355 0.0 10182069
18:00+20сз36415 0.0 10172010
21:00+13зсз226667 0.0 101737
28 июля, ср
ср2800:00+10зсз11755 0.0 101713
03:00+8з118260 0.0 101712
06:00+12з12699 0.0 1016137
09:00+18зсз234738 0.0 1014725
12:00+22з243251 0.0 10121257
15:00+24з4934100 0.0 10092451
18:00+17юв357824 0.3 100789
21:00+14ююз239370 1.3 100759
29 июля, чт
чт2900:00+14юз229168 0.0 100631
03:00+12з22968 0.1 100522
06:00+15сз12915 0.0 100587
09:00+22зсз015825 0.0 1004541
12:00+26юз2439100 0.0 10021789
15:00+25юз134779 0.0 1001182
18:00+21юз3106885 0.3 1000377
21:00+16ю249698 2.9 100065